{"data":{"norad_id":49056,"intl_designator":"2021-069B","name":"EUTELSAT QUANTUM","alt_names":[],"object_type":"PAYLOAD","status":"ACTIVE","operator":null,"country":"EUTE","launch_date":"2021-07-30","launch_site_code":"FRGUI","launch_vehicle":null,"mission":null,"orbit_class":"UNKNOWN","rcs_meters":null,"size_class":null,"mass_kg":null,"dimensions":null,"purposes":["comms"],"wikipedia_slug":null,"has_3d_model":false,"image_url":null,"decayed_at":null,"tle_current":{"epoch":"2026-05-25T03:58:15.953088Z","epoch_age_seconds":71345,"freshness":"FRESH","line1":"1 49056U 21069B   26145.16546242  .00000124  00000+0  00000+0 0  9995","line2":"2 49056   0.0167  11.2469 0002309  49.2162 289.5579  1.00272704 17692","mean_motion":1.00272704,"eccentricity":0.0002309,"inclination_deg":0.0167,"raan_deg":11.2469,"arg_perigee_deg":49.2162,"mean_anomaly_deg":289.5579,"bstar":0,"rev_number":1769,"period_min":1436.0837421917,"perigee_km":35776.601556974,"apogee_km":35796.073111221,"semimajor_km":42164.474334098,"source":"CELESTRAK","updated_at":"2026-05-25T13:38:14.100952Z"}}}